• Join FlightAware (Why Join?)
  • Login
  • US Flag 
03:15AM EDT


 

Airport Tracker/Info


-or-


 

Live Flight TrackerFlight Track Log ✈ AWE388 ✈ 01-May-2013 ✈ KLAS - KCLT

Flight Track Log - Related Links

Times and Time Zones

All times are in EDT time to prevent confusion due to time zone crossing. See the AWE388 flight status page for this flight to view local times or setup timezone preferences in your user account.

Time Position Orientation Groundspeed Altitude Reporting Facility
EDT Latitude Longitude Course Direction KTS MPH feet Rate Location/Type
02:29PM 36.0980 -115.1570 24° Northeast 171 197 2,400  Level FlightAware
02:30PM 36.1070 -115.1520 24° Northeast 169 194 3,000 3,120 Climbing FlightAware
02:30PM 36.1250 -115.1390 30° Northeast 166 191 4,500 3,120 Climbing FlightAware
02:30PM 36.1300 -115.1270 63° Northeast 176 203 5,100 2,400 Climbing FlightAware
02:31PM 36.1320 -115.1100 82° East 188 216 5,700 1,320 Climbing FlightAware
02:31PM 36.1340 -115.0820 85° East 216 249 6,000 1,080 Climbing FlightAware
02:31PM 36.1380 -115.0410 83° East 251 289 6,700 1,680 Climbing FlightAware
02:32PM 36.1400 -115.0190 84° East 257 296 7,300 2,520 Climbing FlightAware
02:32PM 36.1430 -114.9830 84° East 261 300 8,400 2,400 Climbing FlightAware
02:33PM 36.1480 -114.9370 82° East 273 314 9,500 2,100 Climbing FlightAware
02:33PM 36.1540 -114.8730 83° East 292 336 10,900 1,620 Climbing FlightAware
02:34PM 36.1670 -114.7910 79° East 338 389 11,800 1,080 Climbing FlightAware
02:35PM 36.1870 -114.7120 73° East 380 437 12,500 1,380 Climbing FlightAware
02:35PM 36.1900 -114.6140 88° East 401 461 13,800 1,800 Climbing FlightAware
02:36PM 36.1910 -114.5190 89° East 408 470 15,100 1,800 Climbing FlightAware
02:37PM 36.1920 -114.4260 89° East 414 476 16,200 1,680 Climbing FlightAware
02:38PM 36.1930 -114.3150 89° East 424 488 17,500 1,440 Climbing FlightAware
02:38PM 36.1970 -114.2180 87° East 433 498 18,300 1,200 Climbing FlightAware
02:39PM 36.2090 -114.1180 82° East 441 507 19,100 1,260 Climbing FlightAware
02:40PM 36.2220 -114.0060 82° East 448 516 20,100 1,260 Climbing FlightAware
02:40PM 36.2330 -113.9050 82° East 456 525 20,900 1,260 Climbing FlightAware
02:41PM 36.2460 -113.7880 82° East 464 534 21,900 1,680 Climbing FlightAware
02:42PM 36.2580 -113.6810 82° East 453 521 23,300 2,460 Climbing FlightAware
02:42PM 36.2690 -113.5810 82° East 429 494 25,200 1,920 Climbing FlightAware
02:43PM 36.2800 -113.4730 83° East 433 498 26,100 1,080 Climbing FlightAware
02:44PM 36.2910 -113.3750 82° East 437 503 26,800 900 Climbing FlightAware
02:45PM 36.3030 -113.2590 83° East 444 511 27,400 840 Climbing FlightAware
02:45PM 36.3250 -113.1600 75° East 441 507 28,000 780 Climbing FlightAware
02:46PM 36.3500 -113.0640 72° East 444 511 28,500 480 Climbing FlightAware
02:47PM 36.3820 -112.9410 72° East 446 513 28,800 180 Climbing FlightAware
02:47PM 36.4040 -112.8590 72° East 446 513 28,800 660 Level FlightAware
02:48PM 36.4340 -112.7400 73° East 455 524 29,700 600 Climbing FlightAware
02:49PM 36.4610 -112.6340 72° East 455 524 29,700 840 Level FlightAware
02:50PM 36.4580 -112.4950 91° East 466 536 31,000 1,020 Climbing FlightAware
02:50PM 36.4710 -112.3680 83° East 467 537 31,300 180 Climbing FlightAware
02:51PM 36.4820 -112.2540 83° East 467 537 31,300  Level FlightAware
02:52PM 36.4910 -112.1640 83° East 467 537 31,300  Level FlightAware
02:53PM 36.5000 -112.0730 83° East 467 537 31,300  Level FlightAware
02:53PM 36.5090 -111.9820 83° East 467 537 31,300  Level FlightAware
02:54PM 36.5180 -111.8920 83° East 467 537 31,300  Level FlightAware
02:55PM 36.5270 -111.8010 83° East 467 537 31,300  Level FlightAware
02:55PM 36.5380 -111.6870 83° East 467 537 31,300  Level FlightAware
02:56PM 36.5470 -111.5970 83° East 467 537 31,300  Level FlightAware
02:57PM 36.5560 -111.5060 83° East 467 537 31,300 1,200 Level FlightAware
02:58PM 36.5790 -111.1670 85° East 514 592 33,000 1,080 Climbing FlightAware
02:58PM 36.5910 -111.0510 83° East 514 592 33,000  Level FlightAware
02:59PM 36.6000 -110.9510 84° East 514 592 33,000  Level FlightAware
03:00PM 36.6100 -110.8510 83° East 514 592 33,000  Level FlightAware
03:00PM 36.6200 -110.7510 83° East 514 592 33,000  Level FlightAware
03:01PM 36.6320 -110.6260 83° East 514 592 33,000  Level FlightAware
03:02PM 36.6420 -110.5260 83° East 514 592 33,000  Level FlightAware
03:02PM 36.6520 -110.4260 83° East 514 592 33,000  Level FlightAware
03:03PM 36.6620 -110.3260 83° East 514 592 33,000  Level FlightAware
03:04PM 36.6720 -110.2260 83° East 514 592 33,000  Level FlightAware
03:05PM 36.6840 -110.1010 83° East 514 592 33,000  Level FlightAware
03:05PM 36.6940 -110.0010 83° East 514 592 33,000  Level FlightAware
03:06PM 36.7040 -109.9010 83° East 514 592 33,000  Level FlightAware
03:07PM 36.7140 -109.8010 83° East 514 592 33,000  Level FlightAware
03:07PM 36.7230 -109.7000 84° East 514 592 33,000  Level FlightAware
03:08PM 36.7239 -109.2914 84° East 530 610 33,000  Level Denver Center
03:09PM 36.7383 -109.0869 85° East 529 609 33,100  Climbing Denver Center
03:10PM 36.7497 -108.9106 85° East 530 610 33,000 -60 Descending Denver Center
03:11PM 36.7619 -108.7353 85° East 528 608 33,000  Level Denver Center
03:12PM 36.7747 -108.5292 86° East 531 611 33,000  Level Denver Center
03:13PM 36.7850 -108.3519 86° East 533 613 33,000  Level Denver Center
03:14PM 36.7944 -108.2044 85° East 533 613 33,000  Level Denver Center
03:15PM 36.8083 -107.9700 86° East 531 611 33,000  Level Denver Center
03:16PM 36.8200 -107.7658 86° East 529 609 33,000  Level Denver Center
03:17PM 36.8300 -107.5889 86° East 530 610 33,000  Level Denver Center
03:18PM 36.8394 -107.4139 86° East 530 610 33,000  Level Denver Center
03:19PM 36.8500 -107.2072 86° East 532 612 33,000  Level Denver Center
03:20PM 36.8586 -107.0322 86° East 531 611 33,000  Level Denver Center
03:21PM 36.8694 -106.8253 86° East 533 613 33,000  Level Denver Center
03:23PM 36.8778 -106.6464 87° East 538 619 33,000  Level Denver Center
03:24PM 36.8886 -106.4392 86° East 536 617 33,000  Level Denver Center
03:25PM 36.8953 -106.2597 87° East 540 621 33,100  Climbing Denver Center
03:26PM 36.9039 -106.0856 86° East 530 610 33,100 -60 Level Denver Center
03:27PM 36.9133 -105.8819 87° East 525 604 33,000 -120 Descending Denver Center
03:28PM 36.9214 -105.7072 87° East 527 606 32,900  Descending Denver Center
03:29PM 36.9278 -105.5008 88° East 530 610 33,000  Climbing Denver Center
03:30PM 36.9331 -105.3239 88° East 533 613 33,000  Level Denver Center
03:31PM 36.9411 -105.1389 87° East 529 609 33,000  Level Denver Center
03:32PM 36.9456 -104.9528 88° East 534 615 33,000  Level Denver Center
03:33PM 36.9517 -104.7683 88° East 532 612 33,000  Level Denver Center
03:34PM 36.9569 -104.5844 88° East 529 609 33,100  Climbing Denver Center
03:35PM 36.9625 -104.3764 88° East 524 603 33,000 -120 Descending Denver Center
03:35PM 36.9653 -104.2578 88° East 520 598 33,000  Level Albuquerque Center
03:37PM 36.9708 -104.0769 88° East 516 594 33,000  Level Albuquerque Center
03:38PM 36.9753 -103.9000 88° East 509 586 33,000  Level Albuquerque Center
03:39PM 36.9786 -103.7217 89° East 507 583 33,000  Level Albuquerque Center
03:40PM 36.9831 -103.5431 88° East 509 586 33,000  Level Albuquerque Center
03:41PM 36.9864 -103.3644 89° East 509 586 33,000  Level Albuquerque Center
03:42PM 36.9894 -103.1861 89° East 509 586 33,100  Climbing Albuquerque Center
03:43PM 36.9928 -103.0092 89° East 505 581 33,000 -60 Descending Albuquerque Center
03:44PM 36.9967 -102.8028 89° East 507 583 33,000  Level Albuquerque Center
03:45PM 36.9983 -102.6319 89° East 512 589 33,000  Level Albuquerque Center
03:46PM 37.0011 -102.4347 89° East 510 587 33,000  Level Albuquerque Center
03:47PM 37.0031 -102.2675 89° East 507 583 33,000  Level Albuquerque Center
03:48PM 37.0050 -102.0992 89° East 506 582 33,000  Level Albuquerque Center
03:49PM 37.0064 -101.9053 89° East 503 579 33,000  Level Albuquerque Center
03:50PM 37.0072 -101.7386 90° East 502 578 33,000  Level Albuquerque Center
03:51PM 37.0081 -101.5439 90° East 502 578 33,000  Level Albuquerque Center
03:52PM 37.0083 -101.3775 90° East 503 579 33,000 60 Level Albuquerque Center
03:52PM 37.0078 -101.3208 91° East 503 579 33,100  Climbing Kansas City Center
03:53PM 37.0086 -101.1281 90° East 501 577 33,000 -60 Descending Kansas City Center
03:54PM 37.0089 -100.9347 90° East 501 577 33,000  Level Kansas City Center
03:55PM 37.0083 -100.7689 90° East 501 577 33,000  Level Kansas City Center
03:56PM 37.0081 -100.5750 90° East 502 578 33,000  Level Kansas City Center
03:58PM 37.0069 -100.4100 90° East 500 575 33,100  Climbing Kansas City Center
03:59PM 37.0061 -100.2189 90° East 496 571 33,000 -60 Descending Kansas City Center
04:00PM 37.0042 -100.0664 91° East 492 566 33,000  Level Kansas City Center
04:05PM 36.9940 -99.1430 91° East 487 560 33,000  Level FlightAware
04:07PM 36.9920 -99.0280 91° East 487 560 33,000  Level FlightAware
04:07PM 36.9930 -99.0760 272° West 487 560 33,100  Climbing FlightAware
04:08PM 36.9930 -99.0760 272° West 482 555 33,000 -120 Descending FlightAware
04:09PM 36.9910 -98.9810 91° East 482 555 33,000  Level FlightAware
04:10PM 36.9900 -98.8630 91° East 482 555 33,000  Level FlightAware
04:10PM 36.9770 -98.2830 91° East 477 549 33,000  Level FlightAware
04:11PM 36.9740 -98.1570 92° East 476 548 33,000  Level FlightAware
04:12PM 36.9700 -98.0260 92° East 475 547 33,000  Level FlightAware
04:12PM 36.9680 -97.9250 91° East 474 545 33,000  Level FlightAware
04:13PM 36.9640 -97.7680 92° East 472 543 33,000  Level FlightAware
04:14PM 36.9600 -97.6570 93° East 469 540 33,000  Level FlightAware
04:15PM 36.9550 -97.4600 92° East 465 535 33,000  Level FlightAware
04:16PM 36.9520 -97.3730 92° East 465 535 33,000  Level FlightAware
04:17PM 36.9470 -97.2310 92° East 465 535 33,000  Level FlightAware
04:17PM 36.9450 -97.1530 92° East 466 536 33,000  Level FlightAware
04:18PM 36.9400 -97.0130 93° East 468 539 33,000  Level FlightAware
04:19PM 36.9370 -96.9260 92° East 469 540 33,000 60 Level FlightAware
04:19PM 36.9320 -96.7890 93° East 469 540 33,100  Climbing FlightAware
04:20PM 36.9280 -96.6410 92° East 468 539 33,100  Level FlightAware
04:21PM 36.9250 -96.5490 92° East 468 539 33,100  Level FlightAware
04:22PM 36.9220 -96.4570 92° East 468 539 33,100  Level FlightAware
04:22PM 36.9190 -96.3420 92° East 468 539 33,100  Level FlightAware
04:23PM 36.9170 -96.2500 92° East 468 539 33,100  Level FlightAware
04:24PM 36.9140 -96.1580 92° East 468 539 33,100  Level FlightAware
04:24PM 36.9110 -96.0660 92° East 468 539 33,100  Level FlightAware
04:25PM 36.9090 -95.9740 92° East 468 539 33,100  Level FlightAware
04:26PM 36.9060 -95.8590 92° East 468 539 33,100  Level FlightAware
04:27PM 36.9030 -95.7670 92° East 468 539 33,100  Level FlightAware
04:27PM 36.9000 -95.6750 92° East 468 539 33,100  Level FlightAware
04:28PM 36.8980 -95.5830 92° East 468 539 33,100  Level FlightAware
04:29PM 36.8950 -95.4910 92° East 468 539 33,100  Level FlightAware
04:29PM 36.8920 -95.3760 92° East 468 539 33,100 -60 Level FlightAware
04:31PM 36.8539 -95.0075 92° East 454 522 33,000 -60 Descending Kansas City Center
04:32PM 36.8453 -94.8497 94° East 454 522 33,000  Level Kansas City Center
04:33PM 36.8367 -94.6897 94° East 458 527 33,000  Level Kansas City Center
04:34PM 36.8281 -94.5294 94° East 460 529 33,000  Level Kansas City Center
04:35PM 36.8172 -94.3381 94° East 460 529 33,000  Level Kansas City Center
04:36PM 36.8092 -94.1772 94° East 463 533 33,000  Level Kansas City Center
04:37PM 36.8167 -94.0169 87° East 463 533 33,000  Level Kansas City Center
04:38PM 36.8247 -93.8536 86° East 468 539 33,000  Level Kansas City Center
04:39PM 36.8272 -93.7047 89° East 470 541 33,000 540 Level Kansas City Center
04:40PM 36.8331 -93.5106 88° East 467 537 34,200 900 Climbing Kansas City Center
04:41PM 36.8389 -93.3544 87° East 456 525 34,900 360 Climbing Kansas City Center
04:42PM 36.8369 -93.2058 91° East 454 522 35,000  Climbing Memphis Center
04:43PM 36.8258 -93.0447 95° East 454 522 35,000  Level Memphis Center
04:44PM 36.8125 -92.8861 96° East 459 528 35,000  Level Memphis Center
04:45PM 36.7989 -92.7328 96° East 459 528 35,000 -60 Level Memphis Center
04:46PM 36.7872 -92.5797 95° East 459 528 34,900 -60 Descending Memphis Center
04:47PM 36.7731 -92.4264 97° East 454 522 34,900  Level Memphis Center
04:48PM 36.7589 -92.2708 96° East 449 517 35,000  Climbing Memphis Center
04:49PM 36.7444 -92.1150 97° East 449 517 35,000  Level Memphis Center
04:50PM 36.7319 -91.9594 96° East 449 517 35,000  Level Memphis Center
04:51PM 36.7172 -91.8039 97° East 449 517 35,000  Level Memphis Center
04:52PM 36.7044 -91.6508 96° East 449 517 35,000  Level Memphis Center
04:53PM 36.6892 -91.4981 97° East 449 517 35,000  Level Memphis Center
04:54PM 36.6739 -91.3453 97° East 449 517 35,000  Level Memphis Center
04:55PM 36.6603 -91.1897 96° East 449 517 35,100  Climbing Memphis Center
04:56PM 36.6444 -91.0500 98° East 449 517 35,100 -60 Level Memphis Center
04:57PM 36.6286 -90.9000 97° East 449 517 35,000 -60 Descending Memphis Center
04:58PM 36.6144 -90.7472 97° East 444 511 35,000  Level Memphis Center
04:59PM 36.6003 -90.5922 96° East 444 511 35,000  Level Memphis Center
05:00PM 36.5797 -90.4369 99° East 449 517 35,000  Level Memphis Center
05:01PM 36.5275 -90.3000 115° Southeast 439 505 35,000  Level Memphis Center
05:02PM 36.4733 -90.1608 116° Southeast 439 505 35,000  Level Memphis Center
05:03PM 36.4186 -90.0217 116° Southeast 439 505 35,100  Climbing Memphis Center
05:04PM 36.3703 -89.8853 114° Southeast 444 511 35,000 -60 Descending Memphis Center
05:05PM 36.3258 -89.7414 111° Southeast 439 505 35,000  Level Memphis Center
05:06PM 36.2917 -89.5975 106° East 433 498 35,000  Level Memphis Center
05:07PM 36.2761 -89.4431 97° East 433 498 35,000  Level Memphis Center
05:08PM 36.2581 -89.2656 97° East 465 535 35,000  Level Memphis Center
05:09PM 36.2522 -89.1089 93° East 465 535 35,100  Climbing Memphis Center
05:10PM 36.2486 -88.9544 92° East 458 527 35,000 -60 Descending Memphis Center
05:16PM 36.2100 -88.0770 92° East 439 505 35,000  Level FlightAware
05:16PM 36.2060 -87.9730 93° East 440 506 35,000  Level FlightAware
05:17PM 36.2000 -87.8650 94° East 440 506 35,000  Level FlightAware
05:18PM 36.1950 -87.7630 93° East 441 507 35,000  Level FlightAware
05:18PM 36.1900 -87.6620 93° East 443 510 35,000  Level FlightAware
05:19PM 36.1840 -87.5440 94° East 445 512 35,000  Level FlightAware
05:20PM 36.1790 -87.4450 94° East 446 513 35,000  Level FlightAware
05:20PM 36.1740 -87.3420 93° East 448 516 35,000  Level FlightAware
05:21PM 36.1680 -87.2280 94° East 450 518 35,000  Level FlightAware
05:22PM 36.1610 -87.1120 94° East 451 519 35,000  Level FlightAware
05:23PM 36.1560 -87.0070 93° East 452 520 35,000  Level FlightAware
05:23PM 36.1490 -86.8930 94° East 452 520 35,000  Level FlightAware
05:24PM 36.1430 -86.7863 94° East 452 520 35,000  Level FlightAware ADS-B
05:25PM 36.1381 -86.7022 94° East 451 519 35,000  Level FlightAware ADS-B
05:25PM 36.1310 -86.5970 95° East 451 519 35,000  Level FlightAware
05:26PM 36.1270 -86.5436 95° East 452 520 35,000  Level FlightAware ADS-B
05:26PM 36.1184 -86.4266 95° East 453 521 35,000  Level FlightAware ADS-B
05:27PM 36.1126 -86.3482 95° East 455 524 35,000  Level FlightAware ADS-B
05:27PM 36.1067 -86.2685 95° East 456 525 35,000  Level FlightAware ADS-B
05:28PM 36.1007 -86.1882 95° East 456 525 35,000  Level FlightAware ADS-B
05:28PM 36.0944 -86.1051 95° East 456 525 35,000  Level FlightAware ADS-B
05:29PM 36.0881 -86.0232 95° East 457 526 35,000  Level FlightAware ADS-B
05:29PM 36.0818 -85.9425 95° East 457 526 35,000  Level FlightAware ADS-B
05:30PM 36.0756 -85.8627 95° East 458 527 35,000  Level FlightAware ADS-B
05:31PM 36.0674 -85.7579 95° East 459 528 35,000  Level FlightAware ADS-B
05:31PM 36.0609 -85.6761 96° East 460 529 35,000  Level FlightAware ADS-B
05:32PM 36.0545 -85.5960 96° East 460 529 35,000  Level FlightAware ADS-B
05:32PM 36.0481 -85.5172 96° East 461 531 35,000  Level FlightAware ADS-B
05:33PM 36.0415 -85.4370 96° East 462 532 35,000  Level FlightAware ADS-B
05:33PM 36.0332 -85.3350 96° East 462 532 35,000 -120 Level FlightAware ADS-B
05:34PM 36.0266 -85.2554 96° East 463 533 34,900 -600 Descending FlightAware ADS-B
05:34PM 36.0196 -85.1726 96° East 462 532 34,400 -1,020 Descending FlightAware ADS-B
05:35PM 36.0128 -85.0925 96° East 465 535 33,900 -960 Descending FlightAware ADS-B
05:35PM 36.0055 -85.0055 96° East 467 537 33,400 -840 Descending FlightAware ADS-B
05:36PM 35.9977 -84.9144 96° East 465 535 33,000 -300 Descending FlightAware ADS-B
05:37PM 35.9940 -84.8500 94° East 466 536 33,100  Climbing FlightAware
05:37PM 35.9900 -84.8257 101° East 463 533 33,000 -240 Descending FlightAware ADS-B
05:37PM 35.9830 -84.7462 96° East 463 533 33,000  Level FlightAware ADS-B
05:38PM 35.9760 -84.6667 96° East 463 533 33,000  Level FlightAware ADS-B
05:38PM 35.9688 -84.5849 96° East 463 533 33,000  Level FlightAware ADS-B
05:39PM 35.9616 -84.5049 96° East 462 532 33,000  Level FlightAware ADS-B
05:39PM 35.9517 -84.3959 96° East 462 532 33,000 -300 Level FlightAware ADS-B
05:40PM 35.9427 -84.2966 96° East 463 533 32,600 -780 Descending FlightAware ADS-B
05:41PM 35.9339 -84.2008 96° East 464 534 32,100 -960 Descending FlightAware ADS-B
05:41PM 35.9252 -84.1065 96° East 467 537 31,500 -1,020 Descending FlightAware ADS-B
05:42PM 35.9174 -84.0237 97° East 468 539 31,000 -960 Descending FlightAware ADS-B
05:42PM 35.9091 -83.9355 97° East 466 536 30,500 -1,020 Descending FlightAware ADS-B
05:43PM 35.9052 -83.8784 95° East 468 539 30,100 -1,020 Descending FlightAware ADS-B
05:43PM 35.9036 -83.7940 91° East 465 535 29,600 -1,020 Descending FlightAware ADS-B
05:44PM 35.9022 -83.7146 91° East 462 532 29,100 -600 Descending FlightAware ADS-B
05:44PM 35.9007 -83.6319 91° East 462 532 29,000 -120 Descending FlightAware ADS-B
05:45PM 35.8991 -83.5474 91° East 464 534 29,000  Level FlightAware ADS-B
05:45PM 35.8975 -83.4678 91° East 463 533 29,000  Level FlightAware ADS-B
05:46PM 35.8959 -83.3888 91° East 461 531 29,000  Level FlightAware ADS-B
05:46PM 35.8936 -83.2783 91° East 462 532 29,000 -300 Level FlightAware ADS-B
05:47PM 35.8909 -83.1600 92° East 456 525 28,600 -780 Descending FlightAware ADS-B
05:48PM 35.8874 -83.0098 92° East 449 517 27,700 -960 Descending FlightAware ADS-B
05:49PM 35.8855 -82.9326 92° East 440 506 27,200 -1,020 Descending FlightAware ADS-B
05:49PM 35.8837 -82.8567 92° East 433 498 26,700 -1,020 Descending FlightAware ADS-B
05:50PM 35.8818 -82.7820 92° East 424 488 26,200 -900 Descending FlightAware ADS-B
05:50PM 35.8799 -82.7098 92° East 412 474 25,800 -900 Descending FlightAware ADS-B
05:51PM 35.8780 -82.6401 92° East 400 460 25,300 -1,020 Descending FlightAware ADS-B
05:51PM 35.8762 -82.5715 92° East 400 460 24,800 -1,020 Descending FlightAware ADS-B
05:51PM 35.8748 -82.5290 92° East 401 461 24,500 -1,080 Descending FlightAware ADS-B
05:52PM 35.8725 -82.5052 97° East 399 459 24,300 -1,020 Descending FlightAware ADS-B
05:52PM 35.8692 -82.4874 103° East 400 460 24,200 -1,440 Descending FlightAware ADS-B
05:52PM 35.8512 -82.4222 109° East 400 460 23,400 -1,980 Descending FlightAware ADS-B
05:53PM 35.8320 -82.3551 109° East 399 459 22,200 -2,520 Descending FlightAware ADS-B
05:53PM 35.8163 -82.3000 109° East 400 460 21,100 -2,400 Descending FlightAware ADS-B
05:54PM 35.7978 -82.2358 110° East 394 453 20,000 -2,280 Descending FlightAware ADS-B
05:54PM 35.7797 -82.1726 109° East 391 450 18,800 -1,860 Descending FlightAware ADS-B
05:55PM 35.7592 -82.0989 109° East 394 453 17,700 -1,980 Descending Atlanta Center
05:56PM 35.7175 -81.9619 111° Southeast 389 448 15,400 -2,220 Descending Atlanta Center
05:57PM 35.6906 -81.8603 108° East 370 426 13,500 -2,040 Descending Atlanta Center
05:58PM 35.6597 -81.7639 111° Southeast 358 412 12,000 -1,380 Descending Atlanta Center
05:58PM 35.6508 -81.7336 110° East 360 414 12,000  Level Atlanta Center
05:59PM 35.6283 -81.6550 109° East 305 351 12,000 -540 Level Atlanta Center
06:05PM 35.3490 -81.1960 109° East 239 275 8,700 -540 Descending FlightAware
06:05PM 35.3300 -81.1680 130° Southeast 239 275 8,700  Level FlightAware
06:06PM 35.3080 -81.1360 130° Southeast 227 261 8,700  Level FlightAware
06:06PM 35.2810 -81.0960 130° Southeast 226 260 8,700  Level FlightAware
06:07PM 35.2560 -81.0720 142° Southeast 228 262 8,700 -120 Level FlightAware
06:07PM 35.2270 -81.0700 177° South 224 258 8,600 -1,140 Descending FlightAware
06:08PM 35.1980 -81.0670 175° South 226 260 7,700 -1,740 Descending FlightAware
06:08PM 35.1800 -81.0650 175° South 230 265 7,300 -1,500 Descending FlightAware
06:08PM 35.1540 -81.0630 176° South 227 261 6,700 -1,440 Descending FlightAware
06:09PM 35.1160 -81.0590 175° South 223 257 5,800 -840 Descending FlightAware
06:10PM 35.0930 -81.0570 176° South 223 257 5,800 180 Level FlightAware
06:10PM 35.0603 -81.0572 176° South 225 259 6,000 120 Climbing Atlanta Center
06:11PM 35.0039 -81.0517 175° South 219 252 6,000 -540 Level Atlanta Center
06:12PM 34.9369 -81.0464 176° South 218 251 5,000 -480 Descending Atlanta Center
06:13PM 34.8761 -81.0308 168° South 214 246 5,000  Level Atlanta Center
06:14PM 34.8847 -80.9647 81° East 196 226 5,000  Level Atlanta Center
06:15PM 34.9386 -80.9450 17° North 177 204 5,000  Level Atlanta Center
06:16PM 34.9783 -80.9486 356° North 174 200 5,000 -480 Level Atlanta Center
06:17PM 35.0306 -80.9519 357° North 174 200 4,100 -900 Descending Atlanta Center
06:18PM 35.0831 -80.9600 353° North 171 197 3,100 -1,020 Descending Atlanta Center